Погода в Угуте

Погода в Угуте : погода сейчас, прогноз погоды и архив. Всё, что Вы хотите узнать о погоде в Угуте!

Поиск расширенной информации на нашем сайте:

Другие новости

Новости СМИ2

Главная страница сайта

Новости сайта

03.07.2017

Напоминаем, что на нашем специализированном сайте Метеоцентр.Азия вы можете получить высокодетализированные автоматические прогнозы погоды по пунктам России, СНГ и мира в авиационном формате (включающие направление и скорость ветра, видимость, явления погоды, количество и форму облачности, нижнюю и верхнюю границу облачности).


Погода в Угуте - сегодня

Время (UTC), дата Ветер
(°,м/с) 
Видим.   Явления Облачность Т
(°С)
Тd
(°С)
f(%) Тe
(°С)
Pmin
(гПа)
dP
(гПа)
Po
(мм)
O2
(г/м3)
Тmin Tmax R s Состояние
почвы
06 15.08.17 230 (ЮЗ) 10 км    9/0 средняя 
[Ac trans]
+17.3 +10.5 64 +20  1021.4  -0.5  762  287           
09 15.08.17 240 (ЮЗ) 10 км    8/6 1000 м средняя 
[Sc|Ac trans]
+20.2 +11.1 56 +23  1020.2  -1.1  761  283           
12 15.08.17 220 (ЮЗ) 10 км    6/0 средняя 
[Ac cast]
+20.5 +13.6 65 +27  1018.8  -1.3  760  282           
18 15.08.17 200 (Ю) 10 км    ясно 
+15.4 +13.1 86 +22  1017.8  -0.6  759  287           
21 15.08.17 200 (Ю) 10 км    ясно 
+13.8 +12.5 92 +18  1017.1  -0.7  758  288           
00 16.08.17 210 (ЮЗ) 10 км    8/0 средняя 
[Ac trans]
+13.5 +12 91 +18  1016.3  -0.8  758  289           
03 16.08.17 230 (ЮЗ) 10 км    8/0 верхняя 
[Cc]
+17.7 +13.4 76 +24  1015.5  -0.7  757  284  +13.3         
06 16.08.17 240 (ЮЗ) 10 км    8/1 600 м средняя, верхняя 
[Cu hum|Ac cast|Cc]
+22.7 +12.9 54 +28  1014.6  -0.8  757  279           
09 16.08.17 290 (З) 10 км    8/6 600 м кучево-дожд., средняя 
[Cb cap|Ac cuf]
+24.8 +12.4 46 +29  1013.7  -0.8  756  277           
12 16.08.17 270 (З) 10 км    8/3 600 м кучево-дожд., средняя, верхняя 
[Cb cap|Ac cast|Cc]
+24.7 +10.9 42 +27  1013.2  -0.6  756  277           
15 16.08.17 300 (СЗ) 3{12}  10 км    8/3 600 м кучево-дожд., средняя, верхняя 
[Cb cap|Ac cast|Ci fib]
+18.3 +13.4 73 +25  1014.7  1.4  757  283    +25.4       
18 16.08.17 340 (С) 10 км    8/8 600 м кучево-дожд. 
[Cb cap]
+15 +11.9 82 +19  1016.5  1.7  758  287           
21 16.08.17 310 (СЗ) 10 км    8/8 600 м кучево-дожд. 
[Cb cap]
+14 +11.2 83 +18  1017.4  0.9  759  289           
00 17.08.17 330 (СЗ) 10 км    4/4 600 м кучево-дожд. 
[Cb cap]
+11.6 +9.3 86 +12  1018.5  759  292           
03 17.08.17 350 (С) 10 км    8/4 600 м верхняя 
[Cu med, cong|Ci]
+14 +9.1 72 +14  1019.1  0.7  760  290  +11.4         
06 17.08.17 360 (С) 10 км    8/6 600 м кучево-дожд., верхняя 
[Cb cap|Cc]
+17.7 +7.1 50 +18  1019.3  0.3  760  286           
09 17.08.17 320 (СЗ) 10 км    9/9 600 м кучево-дожд. 
[Cb cap]
+15.8 +7.3 57 +16  1019.8  0.4  760  288           
12 17.08.17 300 (СЗ) 10 км    10/6 600 м кучево-дожд., верхняя 
[Cb cap|Cs]
+15.7 +10.2 70 +17  1019.9  0.1  760  288           
15 17.08.17 290 (З) 10 км    8/0 средняя 
[Ac trans]
+12.8 +9.5 80 +14  1020.6  0.7  761  291    +18.2       
18 17.08.17 тихо ()   10 км    4/0 средняя 
[Ac trans]
+10.5 +9.6 94 +11  1021.3  0.7  761  294           
21 17.08.17 360 (С) 10 км    8/0 средняя 
[Ac trans]
+9.7 +8.4 92 +11  1022  0.6  762  295           
00 18.08.17 тихо ()   10 км    3/0 средняя, верхняя 
[Ac trans|Ci fib]
+7.4 +6.5 94 +7  1022.9  0.8  763  298           
03 18.08.17 340 (С) 10 км    3/0 средняя, верхняя 
[Ac trans|Ci fib]
+14.8 +8.7 67 +16  1023.3  0.6  763  290  +6.9         
06 18.08.17 340 (С) 10 км    8/8 600 м кучево-дожд. 
[Cb cap]
+16.2 +7.7 57 +17  1023.2  -0.1  763  289           
09 18.08.17 330 (СЗ) 10 км  {ливн. осадки}  8/5 600 м кучево-дожд., средняя, верхняя 
[Cb cap|Ac trans|Ci fib]
+16.4 +8.4 59 +17  1023.1  -0.1  763  289           
Время (UTC), дата Ветер
(°,м/с) 
Видим.   Явления Облачность Т
(°С)
Тd
(°С)
f(%) Тe
(°С)
Pmin
(гПа)
dP
(гПа)
Po
(мм)
O2
(г/м3)
Тmin Tmax R s Состояние
почвы

Для получения пояснительной информации подведите курсор к названию столбца.

ПОГОДА в Угуте - архив

Всё, что Вы хотите узнать о погоде в Угуте - удобно и подробно!

Выберите нужную дату (начиная с 1 января 2015* года) и нажмите кнопку "Найти".
Будут отображены архивные сводки погоды по пункту Угут, начиная с указанной даты.


Отображать данные в формате CSV (для использования в таблицах Excel)


Внимание! Наш архив погоды предназначен исключительно для личного некоммерческого использования в познавательных целях. Если Вам необходимы официальные справки о состоянии погоды (для производственных, юридических, коммерческих и т.п. целей), обращайтесь в органы Росгидромета.

*Примечание: данная дата относится к архиву по метеостанциям СССР (Россия, СНГ, Балтия).
Архив по метеостанциям Зарубежной Европы и Азии (кроме Китая) хранится 10 дней, по другим регионам земного шара (Китай, Африка, Америка, Австралия, Океания) - 1 день.

Угут - район местоположения метеостанции


Название, широта, долгота, высота метеостанции:
Угут 60.5°ш. 74°д. 48 м над ур. моря [Российская Федерация]

Дополнительная информация

В oтличие oт бoльшинства пoгoдных сайтoв мы публикуем пoдрoбную метеoинфoрмацию в детальнoм прoфессиoнальнoм фoрмате.

Характеристики температуры и влажнoсти вoздуха измеряются на высoте 2 м в тени вдали oт зданий и деревьев.
Скoрoсть ветра измеряется на высoте 10 м (на урoвне рoста челoвека скoрoсть ветра ниже в 1.5-2 раза). Если метеoстанция нахoдится в гoрoде или в лесу, тo скoрoсть ветра занижена на 2-4 м/с пo сравнению с oткрытым местoм. Скoрoсть ветра над акватoриями крупных рек и oзёр, а также на вершинах хoлмoв на 2-5 м/с выше, чем в oбычных услoвиях.
Атмoсфернoе давление в разных тoчках местнoсти мoжет значительнo oтличаться oт давления на метеoстанции, в зависимoсти oт услoвий рельефа (при пoдъёме на 10 м давление пoнижается примернo на 1 мм рт.ст.).